| time (UTC) | temp F | wind direction | speed knots | gust knots | rain 1hr in | rain 24hr in | rain mn in | humidity % | barometer mb |
| 20260509000016 | 60 | 249 | 0.9 | 5.2 | 0.00 | 0.01 | 0.01 | 37 | 1006.3 |
| 20260508234518 | 61 | 243 | 1.7 | 7.8 | 0.00 | 0.01 | 0.01 | 37 | 1006.2 |
| 20260508233026 | 62 | 344 | 2.6 | 8.7 | 0.00 | 0.01 | 0.01 | 35 | 1006.2 |
| 20260508231508 | 62 | 252 | 3.5 | 7.0 | 0.00 | 0.01 | 0.01 | 34 | 1006.2 |
| 20260508230013 | 63 | 215 | 1.7 | 9.6 | 0.00 | 0.01 | 0.01 | 36 | 1006.2 |
| 20260508224514 | 63 | 293 | 3.5 | 8.7 | 0.00 | 0.01 | 0.01 | 34 | 1006.3 |
| 20260508223004 | 62 | 225 | 1.7 | 9.6 | 0.00 | 0.01 | 0.01 | 35 | 1006.4 |
| 20260508221506 | 63 | 249 | 3.5 | 7.8 | 0.00 | 0.01 | 0.01 | 34 | 1006.5 |
| 20260508220014 | 63 | 228 | 0.9 | 8.7 | 0.00 | 0.01 | 0.01 | 38 | 1006.5 |
| 20260508214524 | 63 | 253 | 0.9 | 10.4 | 0.00 | 0.01 | 0.01 | 38 | 1006.6 |
| 20260508213001 | 62 | 232 | 2.6 | 7.8 | 0.00 | 0.01 | 0.01 | 35 | 1006.7 |
| 20260508211510 | 63 | 221 | 7.0 | 9.6 | 0.00 | 0.01 | 0.01 | 35 | 1006.8 |
| 20260508210016 | 63 | 248 | 3.5 | 10.4 | 0.00 | 0.01 | 0.01 | 37 | 1006.9 |
| 20260508204516 | 62 | 218 | 4.3 | 13.9 | 0.00 | 0.01 | 0.01 | 36 | 1006.9 |
| 20260508203028 | 63 | 250 | 1.7 | 7.8 | 0.00 | 0.01 | 0.01 | 34 | 1007.1 |
| 20260508201505 | 62 | 267 | 2.6 | 6.1 | 0.00 | 0.01 | 0.01 | 34 | 1007.5 |
| 20260508200007 | 62 | 215 | 2.6 | 8.7 | 0.00 | 0.01 | 0.01 | 37 | 1007.7 |
| 20260508194514 | 61 | 257 | 2.6 | 7.0 | 0.00 | 0.01 | 0.01 | 35 | 1008.0 |
| 20260508193016 | 61 | 316 | 2.6 | 8.7 | 0.00 | 0.01 | 0.01 | 32 | 1008.2 |
| 20260508191522 | 62 | 252 | 3.5 | 8.7 | 0.00 | 0.01 | 0.01 | 35 | 1008.4 |
| 20260508190007 | 61 | 323 | 2.6 | 7.8 | 0.00 | 0.01 | 0.01 | 42 | 1008.5 |
| 20260508184517 | 60 | 352 | 3.5 | 8.7 | 0.00 | 0.01 | 0.01 | 32 | 1008.7 |
| 20260508183015 | 60 | 262 | 0.9 | 10.4 | 0.00 | 0.01 | 0.01 | 36 | 1008.9 |
| 20260508181518 | 59 | 232 | 1.7 | 8.7 | 0.00 | 0.01 | 0.01 | 38 | 1009.0 |
| 20260508180024 | 60 | 219 | 3.5 | 9.6 | 0.00 | 0.01 | 0.01 | 36 | 1009.1 |
| 20260508174507 | 59 | 130 | 2.6 | 7.0 | 0.00 | 0.01 | 0.01 | 37 | 1009.4 |
| 20260508173013 | 59 | 335 | 4.3 | 7.0 | 0.00 | 0.01 | 0.01 | 37 | 1009.8 |
| 20260508171524 | 58 | 259 | 5.2 | 10.4 | 0.00 | 0.01 | 0.01 | 35 | 1010.0 |
| 20260508170024 | 58 | 194 | 3.5 | 8.7 | 0.00 | 0.01 | 0.01 | 38 | 1010.2 |
| 20260508164527 | 58 | 236 | 2.6 | 6.1 | 0.00 | 0.01 | 0.01 | 39 | 1010.3 |
| 20260508163014 | 57 | 225 | 4.3 | 9.6 | 0.00 | 0.01 | 0.01 | 35 | 1010.5 |
| 20260508161527 | 57 | 228 | 2.6 | 8.7 | 0.00 | 0.01 | 0.01 | 42 | 1010.8 |
| 20260508160022 | 56 | 192 | 2.6 | 8.7 | 0.00 | 0.01 | 0.01 | 40 | 1010.8 |
| 20260508154526 | 55 | 187 | 2.6 | 8.7 | 0.00 | 0.01 | 0.01 | 42 | 1010.9 |
| 20260508153047 | 56 | 230 | 2.6 | 7.0 | 0.00 | 0.01 | 0.01 | 46 | 1011.0 |
| 20260508151514 | 54 | 44 | 0.9 | 7.8 | 0.00 | 0.01 | 0.01 | 49 | 1011.0 |
| 20260508150020 | 53 | 271 | 0.9 | 7.0 | 0.00 | 0.01 | 0.01 | 47 | 1011.2 |
| 20260508144524 | 53 | 234 | 3.5 | 5.2 | 0.00 | 0.01 | 0.01 | 50 | 1011.2 |
| 20260508143027 | 53 | 244 | 3.5 | 5.2 | 0.00 | 0.01 | 0.01 | 51 | 1011.5 |
| 20260508141512 | 51 | 26 | 1.7 | 3.5 | 0.00 | 0.01 | 0.01 | 53 | 1011.6 |
| 20260508140016 | 51 | 290 | 0.9 | 3.5 | 0.00 | 0.01 | 0.01 | 56 | 1011.6 |
| 20260508134510 | 51 | 175 | 0.9 | 4.3 | 0.00 | 0.01 | 0.01 | 60 | 1011.7 |
| 20260508133004 | 50 | 296 | 0.9 | 3.5 | 0.00 | 0.01 | 0.01 | 61 | 1011.7 |
| 20260508131508 | 50 | 85 | 0.0 | 2.6 | 0.00 | 0.01 | 0.01 | 68 | 1011.7 |
| 20260508130015 | 48 | 228 | 0.9 | 2.6 | 0.00 | 0.01 | 0.01 | 69 | 1011.9 |
| 20260508124520 | 46 | 246 | 0.0 | 2.6 | 0.00 | 0.01 | 0.01 | 78 | 1011.7 |
| 20260508123008 | 44 | 196 | 0.0 | 1.7 | 0.00 | 0.01 | 0.01 | 86 | 1011.6 |
| 20260508121508 | 42 | 187 | 0.0 | 2.6 | 0.00 | 0.01 | 0.01 | 95 | 1011.4 |
| 20260508120011 | 40 | 352 | 0.0 | 0.0 | 0.01 | 0.01 | 0.01 | 96 | 1011.5 |
| 20260508114514 | 37 | 38 | 0.0 | 0.0 | 0.01 | 0.01 | 0.01 | 96 | 1011.3 |
| 20260508113022 | 35 | 38 | 0.0 | 0.0 | 0.01 | 0.01 | 0.01 | 95 | 1011.1 |
| 20260508111509 | 33 | 38 | 0.0 | 0.0 | 0.01 | 0.01 | 0.01 | 94 | 1010.9 |
| 20260508110022 | 32 | 38 | 0.0 | 0.0 | 0.00 | 0.00 | 0.00 | 93 | 1010.8 |
| 20260508104516 | 32 | 38 | 0.0 | 0.0 | 0.00 | 0.00 | 0.00 | 93 | 1010.9 |
| 20260508103035 | 32 | 38 | 0.0 | 0.0 | 0.00 | 0.00 | 0.00 | 93 | 1010.7 |
| 20260508101524 | 32 | 38 | 0.0 | 0.0 | 0.00 | 0.00 | 0.00 | 92 | 1010.8 |
| 20260508100005 | 32 | 38 | 0.0 | 0.0 | 0.00 | 0.00 | 0.00 | 92 | 1010.8 |
| 20260508094512 | 33 | 38 | 0.0 | 0.0 | 0.00 | 0.00 | 0.00 | 92 | 1011.0 |
| 20260508093016 | 33 | 38 | 0.0 | 0.0 | 0.00 | 0.00 | 0.00 | 92 | 1010.8 |
| 20260508091521 | 34 | 38 | 0.0 | 1.7 | 0.00 | 0.00 | 0.00 | 92 | 1011.0 |
| 20260508090027 | 34 | 38 | 0.0 | 0.0 | 0.00 | 0.00 | 0.00 | 91 | 1011.1 |
| 20260508084508 | 35 | 38 | 0.0 | 0.0 | 0.00 | 0.00 | 0.00 | 91 | 1010.9 |
| 20260508083014 | 36 | 38 | 0.0 | 0.0 | 0.00 | 0.00 | 0.00 | 91 | 1011.1 |
| 20260508081518 | 37 | 38 | 0.0 | 1.7 | 0.00 | 0.00 | 0.00 | 92 | 1011.0 |
| 20260508080024 | 37 | 69 | 0.0 | 1.7 | 0.00 | 0.00 | 0.00 | 92 | 1011.1 |
| 20260508074524 | 37 | 202 | 0.0 | 0.0 | 0.00 | 0.00 | 0.00 | 92 | 1011.1 |
| 20260508073008 | 37 | 202 | 0.0 | 0.9 | 0.00 | 0.00 | 0.00 | 91 | 1011.0 |
| 20260508071517 | 38 | 202 | 0.0 | 0.0 | 0.00 | 0.00 | 0.00 | 91 | 1011.0 |
| 20260508070022 | 39 | 202 | 0.0 | 0.0 | 0.00 | 0.00 | 0.00 | 91 | 1011.1 |
| 20260508064528 | 39 | 202 | 0.0 | 0.0 | 0.00 | 0.00 | 0.00 | 91 | 1011.4 |
| 20260508063026 | 39 | 202 | 0.0 | 0.0 | 0.00 | 0.00 | 0.00 | 91 | 1011.2 |
| 20260508061511 | 39 | 202 | 0.0 | 0.0 | 0.00 | 0.00 | 0.00 | 91 | 1011.2 |
| 20260508060025 | 40 | 202 | 0.0 | 0.0 | 0.00 | 0.00 | 0.00 | 91 | 1011.5 |
| 20260508054600 | 40 | 202 | 0.0 | 1.7 | 0.00 | 0.00 | 0.00 | 90 | 1011.5 |
| 20260508053030 | 40 | 177 | 0.0 | 0.9 | 0.00 | 0.00 | 0.00 | 90 | 1011.5 |
| 20260508051507 | 40 | 177 | 0.0 | 0.9 | 0.00 | 0.00 | 0.00 | 90 | 1011.7 |
| 20260508050014 | 41 | 177 | 0.0 | 0.0 | 0.00 | 0.00 | 0.00 | 88 | 1011.6 |
| 20260508044504 | 42 | 177 | 0.0 | 0.0 | 0.00 | 0.00 | 0.00 | 88 | 1011.4 |
| 20260508043004 | 42 | 166 | 0.0 | 0.0 | 0.00 | 0.00 | 0.00 | 89 | 1011.3 |
| 20260508041513 | 42 | 166 | 0.0 | 0.9 | 0.00 | 0.00 | 0.00 | 88 | 1011.3 |
| 20260508040012 | 42 | 166 | 0.0 | 1.7 | 0.00 | 0.00 | 0.00 | 86 | 1011.4 |
| 20260508034521 | 42 | 223 | 0.0 | 1.7 | 0.00 | 0.00 | 0.00 | 85 | 1011.7 |
| 20260508033011 | 42 | 223 | 0.0 | 0.0 | 0.00 | 0.00 | 0.00 | 84 | 1011.7 |
| 20260508031505 | 43 | 232 | 0.0 | 0.0 | 0.00 | 0.00 | 0.00 | 82 | 1011.7 |
| 20260508030010 | 43 | 232 | 0.0 | 1.7 | 0.00 | 0.00 | 0.00 | 81 | 1011.6 |
| 20260508024514 | 43 | 232 | 0.0 | 1.7 | 0.00 | 0.00 | 0.00 | 79 | 1011.4 |
| 20260508023018 | 44 | 232 | 0.0 | 0.0 | 0.00 | 0.00 | 0.00 | 76 | 1011.5 |
| 20260508021505 | 45 | 231 | 0.0 | 0.0 | 0.00 | 0.00 | 0.00 | 73 | 1011.3 |
| 20260508020008 | 46 | 231 | 0.0 | 1.7 | 0.00 | 0.00 | 0.00 | 65 | 1011.3 |
| 20260508014513 | 47 | 271 | 1.7 | 3.5 | 0.00 | 0.00 | 0.00 | 62 | 1011.3 |
| 20260508013016 | 47 | 305 | 0.9 | 6.1 | 0.00 | 0.00 | 0.00 | 60 | 1011.3 |
| 20260508011522 | 48 | 346 | 1.7 | 16.5 | 0.00 | 0.00 | 0.00 | 60 | 1011.3 |
| 20260508010016 | 49 | 278 | 0.0 | 1.7 | 0.00 | 0.00 | 0.00 | 58 | 1011.0 |
| 20260508004518 | 49 | 278 | 0.0 | 2.6 | 0.00 | 0.00 | 0.00 | 51 | 1010.7 |
| 20260508003012 | 50 | 282 | 0.0 | 2.6 | 0.00 | 0.00 | 0.00 | 49 | 1010.7 |
| 20260508001518 | 50 | 254 | 0.0 | 2.6 | 0.00 | 0.00 | 0.00 | 50 | 1010.6 |